This is the latest recevied weather packets stored in our database for station/object SP3OTE-2. If no packets are shown the sender has not sent any weather packets the latest 10 day(s).
| Time | Temp. | Humidity | Pressure | Rain* | Wind** | Luminosity | Snow |
|---|---|---|---|---|---|---|---|
| 1777878968 | 19.44° C | 44% | 1014.3 hPa | - | - | - | - |
| 1777878368 | 19.44° C | 44% | 1014.2 hPa | - | - | - | - |
| 1777877768 | 18.89° C | 44% | 1014.3 hPa | - | - | - | - |
| 1777877167 | 18.89° C | 44% | 1014.2 hPa | - | - | - | - |
| 1777876567 | 18.33° C | 45% | 1014.2 hPa | - | - | - | - |
| 1777875967 | 18.33° C | 45% | 1014.1 hPa | - | - | - | - |
| 1777875367 | 18.33° C | 44% | 1014.1 hPa | - | - | - | - |
| 1777874766 | 17.78° C | 44% | 1014.1 hPa | - | - | - | - |
| 1777874166 | 17.78° C | 45% | 1014.2 hPa | - | - | - | - |
| 1777873566 | 16.67° C | 46% | 1014.1 hPa | - | - | - | - |
| 1777872965 | 16.11° C | 47% | 1014.1 hPa | - | - | - | - |
| 1777872365 | 16.11° C | 47% | 1014.1 hPa | - | - | - | - |
| 1777871765 | 15.56° C | 48% | 1014.2 hPa | - | - | - | - |
| 1777871165 | 15° C | 47% | 1014.3 hPa | - | - | - | - |
| 1777870564 | 14.44° C | 48% | 1014.3 hPa | - | - | - | - |
| 1777869964 | 14.44° C | 48% | 1014.2 hPa | - | - | - | - |
| 1777869364 | 13.89° C | 49% | 1014.1 hPa | - | - | - | - |
| 1777868763 | 13.89° C | 49% | 1013.9 hPa | - | - | - | - |
| 1777868163 | 13.33° C | 49% | 1013.9 hPa | - | - | - | - |
| 1777867563 | 13.33° C | 49% | 1013.9 hPa | - | - | - | - |
| 1777866962 | 12.78° C | 50% | 1013.8 hPa | - | - | - | - |
| 1777866362 | 12.22° C | 50% | 1013.7 hPa | - | - | - | - |
| 1777865762 | 12.22° C | 50% | 1013.7 hPa | - | - | - | - |
| 1777865162 | 12.22° C | 50% | 1013.7 hPa | - | - | - | - |
| 1777864562 | 12.22° C | 50% | 1013.7 hPa | - | - | - | - |
* Rain since midnight (hover to see other rain measurements)
** Current wind speed in m/s (hover to see current wind gust speed)